QPF
0.00 0.00 0.00 0.00 0.00 0.00 0.00 0.00 0.00 0.00 0.00 0.00 0.00 0.00 0.00 0.00 0.00 0.00 0.00 0.00 0.00 0.00 0.00 0.00 0.00 0.00 0.00 0.00 0.00 0.00 0.00 0.00 0.00 0.00 0.00 0.00 0.00 0.00 0.00 0.00 0.00 0.00 0.00 0.00 0.00 0.00 0.00 0.00 0.00
0.00 0.00 0.00 0.00 0.00 0.00 0.00 0.00 0.00 0.00 0.00 0.00 0.00 0.00 0.00 0.00 0.00 0.00 0.00 0.00 0.00 0.00 0.00 0.00 0.00 0.00 0.00 0.00 0.00 0.00 0.00 0.00 0.00 0.00 0.00 0.00 0.00 0.00 0.00 0.00 0.00 0.00 0.00 0.00 0.00 0.00 0.00 0.00 0.00
0.00 0.00 0.00 0.00 0.00 0.00 0.00 0.00 0.00 0.00 0.00 0.00 0.00 0.00 0.00 0.00 0.00 0.00 0.00 0.00 0.00 0.00 0.00 0.00 0.00 0.00 0.00 0.00 0.00 0.00 0.00 0.00 0.00 0.00 0.00 0.00 0.00 0.00 0.00 0.00 0.00 0.00 0.00 0.00 0.00 0.00 0.00 0.00 0.00
0.00 0.00 0.00 0.00 0.00 0.00 0.00 0.00 0.00 0.00 0.00 0.00 0.00 0.00 0.00 0.00 0.00 0.00 0.00 0.00 0.00 0.00 0.00 0.00 0.00 0.00 0.00 0.00 0.00 0.00 0.00 0.00 0.00 0.00 0.00 0.00 0.00 0.00 0.00 0.00 0.00 0.00 0.00 0.00 0.00 0.00 0.00 0.00 0.00
0.00 0.00 0.00 0.00 0.00 0.00 0.00 0.00 0.00 0.00 0.00 0.00 0.00 0.00 0.00 0.00 0.00 0.00 0.00 0.00 0.00 0.00 0.00 0.00 0.00 0.00 0.00 0.00 0.00 0.00 0.00 0.00 0.00 0.00 0.00 0.00 0.00 0.00 0.00 0.00 0.00 0.00 0.00 0.00 0.00 0.00 0.00 0.00 0.00
0.00 0.00 0.00 0.00 0.00 0.00 0.00 0.00 0.00 0.00 0.00 0.00 0.00 0.00 0.00 0.00 0.00 0.00 0.00 0.00 0.00 0.00 0.00 0.00 0.00 0.00 0.00 0.00 0.00 0.00 0.00 0.00 0.00 0.00 0.00 0.00 0.00 0.00 0.00 0.00 0.00 0.00 0.00 0.00 0.00 0.00 0.00 0.00 0.00
0.00 0.00 0.00 0.00 0.00 0.00 0.00 0.00 0.00 0.00 0.00 0.00 0.00 0.00 0.00 0.00 0.00 0.00 0.00 0.00 0.00 0.00 0.00 0.00 0.00 0.00 0.00 0.00 0.00 0.00 0.00 0.00 0.00 0.00 0.00 0.00 0.00 0.00 0.00 0.00 0.00 0.00 0.00 0.00 0.00 0.00 0.00 0.00 0.00
0.00 0.00 0.00 0.00 0.00 0.00 0.00 0.00 0.00 0.00 0.00 0.00 0.00 0.00 0.00 0.00 0.00 0.00 0.00 0.00 0.00 0.00 0.00 0.00 0.00 0.00 0.00 0.00 0.00 0.00 0.00 0.00 0.00 0.00 0.00 0.00 0.00 0.00 0.00 0.00 0.00 0.00 0.00 0.00 0.00 0.00 0.00 0.00 0.00
0.00 0.00 0.00 0.00 0.00 0.00 0.00 0.00 0.00 0.00 0.00 0.00 0.00 0.01 0.01 0.01 0.00 0.00 0.00 0.00 0.00 0.00 0.00 0.00 0.00 0.00 0.00 0.00 0.00 0.00 0.00 0.00 0.00 0.00 0.00 0.00 0.00 0.00 0.00 0.00 0.00 0.00 0.00 0.00 0.00 0.00 0.00 0.00 0.00
0.00 0.00 0.00 0.00 0.00 0.00 0.00 0.00 0.00 0.00 0.00 0.00 0.00 0.02 0.04 0.01 0.00 0.00 0.00 0.00 0.00 0.00 0.00 0.00 0.00 0.00 0.00 0.00 0.00 0.00 0.00 0.00 0.00 0.00 0.00 0.00 0.00 0.00 0.00 0.00 0.00 0.00 0.00 0.00 0.00 0.00 0.00 0.00 0.00
0.00 0.00 0.00 0.00 0.00 0.00 0.00 0.00 0.00 0.00 0.00 0.00 0.00 0.00 0.00 0.02 0.00 0.01 0.00 0.00 0.00 0.00 0.00 0.00 0.00 0.00 0.00 0.00 0.00 0.00 0.00 0.00 0.00 0.00 0.00 0.00 0.00 0.00 0.00 0.00 0.00 0.00 0.00 0.00 0.00 0.00 0.00 0.00 0.00
0.00 0.00 0.00 0.00 0.00 0.00 0.00 0.00 0.00 0.00 0.00 0.00 0.00 0.00 0.00 0.00 0.02 0.05 0.04 0.00 0.00 0.00 0.01 0.00 0.00 0.00 0.00 0.00 0.00 0.00 0.00 0.00 0.00 0.00 0.00 0.00 0.00 0.00 0.00 0.00 0.00 0.00 0.00 0.00 0.00 0.00 0.00 0.00 0.00
0.00 0.00 0.00 0.00 0.00 0.00 0.00 0.00 0.00 0.00 0.00 0.00 0.00 0.00 0.00 0.00 0.00 0.00 0.01 0.03 0.01 0.01 0.06 0.02 0.00 0.00 0.00 0.00 0.00 0.00 0.00 0.00 0.00 0.00 0.00 0.00 0.00 0.00 0.00 0.00 0.00 0.00 0.00 0.00 0.00 0.00 0.00 0.00 0.00
0.00 0.00 0.00 0.00 0.00 0.00 0.00 0.00 0.00 0.00 0.00 0.00 0.00 0.00 0.00 0.00 0.00 0.00 0.00 0.00 0.00 0.01 0.06 0.03 0.03 0.01 0.00 0.00 0.00 0.00 0.00 0.00 0.00 0.00 0.00 0.00 0.00 0.00 0.00 0.00 0.00 0.00 0.00 0.00 0.00 0.00 0.00 0.00 0.00
0.00 0.00 0.00 0.00 0.00 0.00 0.00 0.00 0.00 0.00 0.00 0.00 0.00 0.00 0.00 0.00 0.00 0.00 0.00 0.00 0.00 0.00 0.04 0.03 0.01 0.08 0.04 0.00 0.00 0.00 0.00 0.00 0.00 0.00 0.00 0.00 0.00 0.00 0.00 0.00 0.00 0.00 0.00 0.00 0.00 0.00 0.00 0.00 0.00
0.00 0.00 0.00 0.00 0.00 0.00 0.00 0.00 0.00 0.00 0.00 0.00 0.00 0.00 0.00 0.00 0.00 0.00 0.00 0.00 0.00 0.00 0.01 0.02 0.00 0.08 0.12 0.01 0.01 0.00 0.00 0.00 0.00 0.00 0.00 0.00 0.00 0.00 0.00 0.00 0.00 0.00 0.00 0.00 0.00 0.00 0.00 0.00 0.00
0.00 0.00 0.00 0.00 0.00 0.00 0.00 0.00 0.00 0.00 0.00 0.00 0.00 0.00 0.00 0.00 0.00 0.00 0.00 0.00 0.00 0.00 0.00 0.01 0.01 0.04 0.13 0.06 0.02 0.00 0.00 0.00 0.00 0.00 0.00 0.00 0.00 0.00 0.00 0.00 0.00 0.00 0.00 0.00 0.00 0.00 0.00 0.00 0.00
0.00 0.00 0.00 0.00 0.00 0.00 0.00 0.00 0.00 0.00 0.00 0.00 0.00 0.00 0.00 0.00 0.00 0.00 0.00 0.00 0.00 0.00 0.00 0.00 0.00 0.00 0.05 0.07 0.03 0.00 0.00 0.00 0.00 0.00 0.00 0.00 0.00 0.00 0.00 0.00 0.00 0.00 0.00 0.00 0.00 0.00 0.00 0.00 0.00
0.00 0.00 0.00 0.00 0.00 0.00 0.00 0.00 0.00 0.00 0.00 0.00 0.00 0.00 0.00 0.00 0.00 0.00 0.00 0.00 0.00 0.00 0.00 0.00 0.00 0.01 0.07 0.04 0.01 0.01 0.00 0.00 0.00 0.00 0.00 0.00 0.00 0.00 0.00 0.00 0.00 0.00 0.00 0.00 0.00 0.00 0.00 0.00 0.00
0.00 0.00 0.00 0.00 0.00 0.00 0.00 0.00 0.00 0.00 0.00 0.00 0.00 0.00 0.00 0.00 0.00 0.00 0.00 0.00 0.00 0.00 0.00 0.00 0.00 0.00 0.06 0.07 0.05 0.03 0.01 0.00 0.00 0.00 0.00 0.00 0.00 0.00 0.00 0.00 0.00 0.00 0.00 0.00 0.00 0.00 0.00 0.00 0.00
0.00 0.00 0.00 0.00 0.00 0.00 0.00 0.00 0.00 0.00 0.00 0.00 0.00 0.00 0.00 0.00 0.00 0.00 0.00 0.00 0.00 0.00 0.00 0.00 0.00 0.00 0.00 0.01 0.03 0.03 0.04 0.02 0.00 0.00 0.00 0.00 0.00 0.00 0.00 0.00 0.00 0.00 0.00 0.00 0.00 0.00 0.00 0.00 0.00
0.00 0.00 0.00 0.00 0.00 0.00 0.00 0.00 0.00 0.00 0.00 0.00 0.00 0.00 0.00 0.00 0.00 0.00 0.00 0.00 0.00 0.00 0.00 0.00 0.00 0.00 0.00 0.01 0.00 0.01 0.01 0.01 0.00 0.00 0.00 0.00 0.00 0.00 0.00 0.00 0.00 0.00 0.00 0.00 0.00 0.00 0.00 0.00 0.00
0.00 0.00 0.00 0.00 0.00 0.00 0.00 0.00 0.00 0.00 0.00 0.00 0.00 0.00 0.00 0.00 0.00 0.00 0.00 0.00 0.00 0.00 0.00 0.00 0.00 0.00 0.00 0.01 0.02 0.03 0.00 0.00 0.01 0.01 0.01 0.00 0.00 0.00 0.00 0.00 0.00 0.00 0.00 0.00 0.00 0.00 0.00 0.00 0.00
0.00 0.00 0.00 0.00 0.00 0.00 0.00 0.00 0.00 0.01 0.03 0.01 0.00 0.00 0.00 0.00 0.00 0.00 0.00 0.00 0.00 0.00 0.00 0.00 0.00 0.00 0.00 0.00 0.03 0.03 0.02 0.02 0.01 0.01 0.02 0.01 0.02 0.01 0.00 0.00 0.00 0.00 0.00 0.00 0.00 0.00 0.00 0.00 0.00
0.00 0.00 0.00 0.00 0.00 0.00 0.00 0.00 0.00 0.00 0.05 0.03 0.01 0.00 0.00 0.00 0.00 0.00 0.00 0.00 0.00 0.00 0.00 0.00 0.00 0.00 0.00 0.00 0.00 0.02 0.02 0.08 0.06 0.02 0.03 0.02 0.02 0.03 0.01 0.00 0.00 0.00 0.00 0.00 0.00 0.00 0.00 0.00 0.00
0.00 0.00 0.00 0.00 0.00 0.00 0.00 0.00 0.00 0.00 0.01 0.01 0.01 0.00 0.00 0.00 0.00 0.00 0.00 0.00 0.00 0.00 0.00 0.00 0.00 0.00 0.00 0.00 0.00 0.00 0.00 0.02 0.07 0.04 0.02 0.02 0.00 0.02 0.05 0.02 0.01 0.00 0.00 0.00 0.00 0.00 0.00 0.00 0.00
0.00 0.00 0.00 0.00 0.00 0.00 0.00 0.01 0.01 0.00 0.00 0.00 0.00 0.00 0.00 0.00 0.00 0.00 0.00 0.00 0.00 0.00 0.00 0.00 0.00 0.00 0.00 0.00 0.00 0.00 0.00 0.00 0.01 0.04 0.04 0.03 0.04 0.01 0.07 0.02 0.02 0.01 0.00 0.00 0.00 0.00 0.00 0.00 0.00
0.00 0.00 0.00 0.00 0.01 0.01 0.00 0.00 0.00 0.00 0.00 0.00 0.00 0.00 0.00 0.00 0.00 0.00 0.00 0.00 0.00 0.00 0.00 0.00 0.00 0.00 0.00 0.00 0.00 0.00 0.00 0.00 0.01 0.05 0.11 0.11 0.09 0.12 0.05 0.05 0.02 0.03 0.02 0.00 0.00 0.00 0.00 0.00 0.00
0.00 0.00 0.00 0.00 0.01 0.01 0.01 0.00 0.00 0.00 0.00 0.00 0.00 0.00 0.00 0.00 0.00 0.00 0.00 0.00 0.00 0.00 0.00 0.00 0.00 0.00 0.00 0.00 0.00 0.00 0.00 0.00 0.00 0.03 0.09 0.18 0.19 0.24 0.22 0.10 0.04 0.08 0.09 0.04 0.00 0.00 0.00 0.00 0.00
0.00 0.00 0.00 0.00 0.00 0.00 0.00 0.00 0.00 0.00 0.00 0.00 0.00 0.00 0.00 0.00 0.00 0.00 0.00 0.00 0.00 0.00 0.00 0.00 0.00 0.00 0.00 0.00 0.00 0.00 0.00 0.00 0.00 0.00 0.01 0.07 0.17 0.25 0.26 0.22 0.12 0.03 0.05 0.05 0.03 0.00 0.00 0.00 0.00
MSLP
1013.42 1012.74 1012.52 1012.76 1014.25 1014.99 1014.55 1013.45 1012.18 1010.81 1009.05 1007.73 1007.08 1007.15 1007.96 1008.87 1009.18 1010.19 1009.70 1010.05 1010.94 1012.09 1012.69 1013.28 1013.54 1013.40 1013.68 1014.12 1014.48 1014.65 1015.00 1015.43 1015.81 1016.22 1016.55 1016.89 1017.12 1017.42 1017.68 1017.90 1018.18 1018.39 1018.57 1018.78 1018.96 1019.12 1019.31 1019.55 1019.77
1013.31 1012.80 1012.91 1013.95 1014.90 1015.42 1014.42 1013.27 1011.92 1010.29 1009.01 1008.38 1007.36 1007.16 1007.62 1008.58 1009.09 1009.84 1010.35 1010.88 1010.88 1012.13 1012.85 1013.33 1013.69 1013.68 1013.94 1014.35 1014.75 1014.98 1015.24 1015.59 1015.93 1016.30 1016.71 1017.08 1017.36 1017.70 1018.06 1018.34 1018.57 1018.78 1019.01 1019.18 1019.38 1019.63 1019.85 1020.02 1020.15
1013.16 1013.22 1014.19 1015.16 1015.66 1015.45 1014.48 1013.06 1011.89 1009.90 1008.61 1008.11 1007.58 1007.73 1008.08 1008.90 1009.47 1009.89 1010.11 1011.03 1011.38 1012.39 1013.03 1013.51 1013.79 1013.97 1014.33 1014.53 1014.88 1015.38 1015.54 1015.90 1016.18 1016.48 1016.86 1017.29 1017.61 1017.94 1018.35 1018.64 1018.89 1019.14 1019.37 1019.60 1019.83 1020.06 1020.26 1020.34 1020.45
1013.35 1013.81 1015.32 1015.65 1015.79 1015.23 1014.21 1013.05 1011.82 1010.23 1008.55 1008.35 1007.67 1008.12 1008.45 1008.64 1009.02 1009.34 1010.03 1010.72 1011.76 1012.81 1013.22 1013.74 1014.09 1014.15 1014.64 1014.87 1015.14 1015.50 1016.03 1016.20 1016.52 1016.73 1017.08 1017.53 1017.91 1018.17 1018.56 1018.94 1019.25 1019.52 1019.76 1020.02 1020.25 1020.47 1020.63 1020.68 1020.71
1013.94 1014.89 1015.85 1016.48 1015.93 1015.03 1013.93 1012.81 1011.82 1010.94 1009.78 1009.25 1008.59 1008.83 1009.17 1009.85 1009.42 1010.13 1010.77 1011.19 1011.34 1012.74 1013.44 1014.02 1014.39 1014.41 1014.84 1015.22 1015.51 1015.82 1016.22 1016.57 1016.82 1017.08 1017.35 1017.76 1018.09 1018.51 1018.78 1019.15 1019.55 1019.84 1020.13 1020.31 1020.53 1020.81 1020.87 1020.92 1020.99
1015.13 1015.67 1016.63 1016.78 1016.04 1015.12 1013.82 1012.96 1012.29 1011.45 1010.41 1009.81 1009.31 1009.64 1010.36 1010.72 1010.80 1011.08 1011.69 1012.15 1012.50 1012.65 1013.43 1014.23 1014.75 1014.77 1015.12 1015.47 1015.79 1016.17 1016.48 1016.90 1017.14 1017.44 1017.71 1017.99 1018.34 1018.75 1019.01 1019.33 1019.75 1020.13 1020.39 1020.59 1020.75 1021.07 1021.13 1021.15 1021.42
1015.49 1016.50 1017.02 1016.90 1016.03 1015.16 1014.26 1013.20 1012.65 1012.34 1011.24 1010.08 1009.87 1010.30 1010.77 1010.98 1011.52 1011.62 1012.13 1012.67 1013.06 1013.52 1013.85 1014.31 1014.87 1015.18 1015.44 1015.81 1016.14 1016.45 1016.88 1017.05 1017.54 1017.69 1018.05 1018.33 1018.68 1018.92 1019.20 1019.50 1019.91 1020.27 1020.53 1020.78 1021.08 1021.38 1021.41 1021.54 1021.72
1015.69 1016.72 1017.15 1017.00 1016.39 1015.60 1015.00 1014.12 1013.26 1012.91 1012.01 1010.66 1010.58 1010.93 1011.17 1011.45 1012.02 1012.47 1012.90 1013.34 1013.67 1013.99 1014.26 1014.47 1014.86 1015.33 1015.82 1016.28 1016.50 1016.77 1017.18 1017.51 1017.64 1018.12 1018.33 1018.76 1018.95 1019.22 1019.37 1019.67 1019.91 1020.27 1020.55 1020.90 1021.28 1021.55 1021.69 1021.88 1021.98
1015.91 1017.19 1018.05 1017.44 1016.61 1016.22 1015.79 1015.21 1013.67 1013.18 1012.50 1012.00 1012.24 1011.90 1012.17 1012.13 1012.79 1013.13 1013.68 1014.07 1014.29 1014.49 1014.60 1014.61 1014.90 1015.45 1015.94 1016.49 1016.87 1017.13 1017.38 1017.86 1018.11 1018.31 1018.78 1019.10 1019.43 1019.48 1019.69 1019.88 1020.15 1020.26 1020.53 1020.92 1021.38 1021.78 1021.97 1022.11 1022.19
1016.94 1018.05 1018.24 1017.74 1017.34 1017.27 1016.91 1016.34 1015.39 1014.32 1013.81 1013.11 1012.66 1012.67 1012.44 1012.95 1013.54 1014.17 1014.01 1014.40 1014.69 1014.86 1014.91 1014.88 1015.03 1015.27 1015.97 1016.51 1017.01 1017.44 1017.77 1018.06 1018.56 1018.70 1018.94 1019.35 1019.67 1019.96 1019.88 1020.06 1020.32 1020.53 1020.69 1020.93 1021.33 1021.88 1022.19 1022.34 1022.57
1017.99 1018.70 1018.90 1018.41 1018.14 1017.60 1017.23 1016.66 1016.17 1015.35 1015.53 1015.20 1014.52 1013.86 1013.76 1013.47 1013.65 1014.25 1014.59 1014.97 1014.41 1014.47 1014.98 1015.21 1015.02 1015.26 1015.72 1016.30 1016.96 1017.50 1017.82 1018.21 1018.55 1019.06 1019.15 1019.44 1019.82 1020.23 1020.52 1020.40 1020.58 1020.84 1020.92 1021.13 1021.30 1021.73 1022.24 1022.43 1022.60
1018.91 1019.46 1019.38 1019.07 1018.37 1017.46 1017.39 1017.30 1016.94 1016.47 1016.68 1015.91 1015.05 1014.35 1014.16 1014.33 1014.23 1013.79 1014.04 1014.44 1014.93 1015.10 1014.56 1014.77 1014.96 1015.18 1015.49 1015.96 1016.70 1017.28 1017.67 1018.11 1018.46 1018.95 1019.36 1019.49 1019.83 1020.17 1020.53 1020.88 1020.81 1020.93 1021.12 1021.35 1021.46 1021.72 1022.12 1022.48 1022.51
1020.14 1020.23 1019.78 1019.17 1018.60 1018.02 1017.71 1018.05 1017.84 1017.71 1016.73 1016.64 1015.65 1015.01 1014.68 1014.63 1014.55 1014.18 1013.89 1013.65 1013.88 1014.64 1015.32 1014.83 1014.80 1014.95 1015.10 1015.55 1016.22 1016.82 1017.39 1017.81 1018.20 1018.69 1019.26 1019.49 1019.72 1020.04 1020.35 1020.79 1021.13 1021.19 1021.23 1021.35 1021.63 1021.76 1021.94 1022.35 1022.43
1020.84 1020.69 1020.19 1019.72 1019.33 1018.90 1018.80 1018.20 1018.00 1018.50 1017.61 1016.17 1016.54 1015.93 1015.73 1015.17 1014.87 1014.47 1013.94 1013.79 1013.86 1013.82 1014.33 1014.76 1014.57 1014.57 1014.92 1015.06 1015.45 1016.03 1016.79 1017.45 1017.97 1018.32 1018.69 1019.35 1019.65 1019.94 1020.24 1020.53 1020.89 1021.24 1021.34 1021.49 1021.63 1021.74 1021.90 1022.10 1022.45
1021.23 1021.25 1020.73 1020.29 1020.04 1019.71 1019.14 1019.40 1019.58 1019.23 1018.19 1017.39 1016.76 1016.75 1016.56 1015.90 1015.14 1015.09 1014.39 1013.51 1013.22 1013.34 1013.38 1014.01 1014.30 1014.50 1014.54 1014.85 1015.02 1015.21 1015.93 1016.74 1017.41 1017.91 1018.26 1018.76 1019.38 1019.72 1020.01 1020.38 1020.61 1020.82 1021.13 1021.41 1021.78 1021.94 1022.02 1022.06 1022.26
1022.18 1022.39 1022.55 1021.95 1021.24 1020.65 1020.55 1021.04 1020.40 1019.95 1019.40 1018.64 1017.82 1017.56 1017.28 1016.92 1016.36 1015.77 1015.10 1014.03 1013.36 1012.85 1012.69 1012.68 1013.19 1014.20 1014.61 1014.49 1014.56 1014.93 1015.26 1015.88 1016.46 1017.16 1017.82 1018.15 1018.71 1019.32 1019.79 1020.14 1020.41 1020.63 1021.01 1021.32 1021.62 1022.00 1022.24 1022.13 1022.30
1023.96 1024.26 1023.76 1022.88 1022.50 1022.52 1022.31 1022.43 1021.79 1020.63 1020.44 1020.04 1019.43 1018.85 1018.44 1017.94 1017.29 1016.89 1016.34 1015.19 1014.00 1013.15 1012.49 1012.56 1012.87 1013.13 1013.85 1014.55 1014.47 1014.83 1015.38 1015.51 1015.78 1016.41 1017.06 1017.63 1017.99 1018.52 1019.18 1019.60 1019.98 1020.39 1020.78 1021.11 1021.38 1021.84 1021.95 1022.19 1022.20
1025.98 1025.63 1025.02 1024.57 1023.83 1023.20 1023.37 1023.15 1022.74 1021.90 1021.47 1021.28 1020.60 1020.03 1019.54 1019.23 1019.06 1018.54 1017.49 1016.23 1015.24 1014.20 1012.97 1012.54 1012.74 1012.67 1013.03 1013.70 1014.57 1014.81 1015.21 1015.37 1015.53 1015.50 1015.74 1016.68 1017.26 1017.74 1018.34 1018.88 1019.36 1019.83 1020.37 1020.84 1021.28 1021.54 1021.78 1021.76 1022.00
1026.23 1026.04 1025.82 1025.11 1024.44 1024.32 1023.96 1023.69 1023.29 1022.84 1022.42 1022.11 1021.62 1021.03 1020.75 1020.17 1019.92 1019.25 1018.52 1017.66 1016.59 1015.59 1014.76 1014.21 1013.41 1013.28 1013.64 1013.50 1013.62 1014.11 1014.30 1014.42 1014.81 1014.84 1015.07 1015.36 1016.11 1016.86 1017.43 1017.98 1018.57 1019.12 1019.63 1020.12 1020.68 1021.14 1021.53 1021.75 1021.72
1026.21 1026.34 1026.34 1025.77 1025.26 1024.92 1024.33 1024.28 1023.61 1023.25 1023.17 1022.82 1022.51 1021.83 1021.34 1020.93 1020.28 1019.86 1019.30 1018.69 1017.92 1017.11 1016.30 1015.49 1014.85 1014.11 1013.68 1013.58 1013.61 1013.68 1013.34 1013.22 1013.31 1014.22 1014.79 1015.11 1015.48 1015.94 1016.49 1016.94 1017.78 1018.31 1018.99 1019.49 1019.97 1020.50 1021.04 1021.18 1021.34
1026.88 1027.29 1027.19 1026.97 1026.34 1025.39 1025.09 1025.23 1024.63 1024.34 1023.96 1023.26 1022.92 1022.67 1022.09 1021.81 1021.47 1021.05 1020.52 1019.87 1019.21 1018.23 1017.22 1016.64 1016.08 1015.26 1014.37 1012.91 1013.14 1013.35 1013.78 1014.03 1014.26 1014.36 1014.42 1014.37 1014.40 1014.78 1015.43 1016.02 1016.68 1017.56 1018.13 1018.55 1019.10 1019.69 1020.06 1020.51 1020.97
1027.59 1027.52 1027.52 1027.34 1027.33 1026.97 1026.13 1026.53 1026.12 1025.49 1025.04 1024.31 1023.63 1023.07 1022.73 1022.27 1022.03 1022.00 1021.59 1020.94 1020.23 1019.53 1018.31 1017.22 1016.46 1015.50 1014.40 1013.31 1012.45 1012.58 1012.83 1013.17 1013.02 1012.87 1012.86 1013.00 1013.64 1014.26 1014.79 1015.34 1015.94 1016.42 1017.14 1017.70 1018.09 1018.73 1019.08 1019.73 1020.17
1028.16 1027.91 1027.77 1027.74 1027.87 1027.93 1027.39 1027.39 1026.58 1026.36 1025.81 1025.02 1024.43 1023.74 1023.35 1022.97 1022.61 1022.33 1022.10 1021.76 1020.91 1020.02 1019.04 1017.80 1016.80 1015.77 1014.79 1014.06 1013.43 1012.63 1012.44 1012.37 1012.39 1012.73 1013.46 1012.81 1013.03 1013.65 1013.97 1014.56 1015.05 1015.68 1016.18 1016.79 1017.26 1017.84 1018.35 1018.46 1018.84
1028.28 1028.25 1028.20 1028.55 1028.97 1029.09 1028.12 1028.09 1027.39 1026.96 1026.58 1026.14 1024.94 1024.11 1023.70 1023.33 1022.99 1022.56 1022.28 1021.97 1021.47 1020.18 1019.11 1018.02 1016.98 1016.32 1015.67 1014.87 1014.20 1013.70 1012.88 1012.42 1012.09 1012.15 1012.37 1012.44 1012.73 1012.88 1013.25 1013.76 1014.32 1014.62 1015.17 1015.67 1016.05 1016.68 1017.20 1017.46 1017.81
1029.27 1029.65 1030.47 1030.55 1030.45 1029.96 1028.71 1028.23 1027.50 1026.72 1026.23 1025.65 1025.11 1024.29 1023.97 1023.72 1023.24 1022.77 1022.15 1021.79 1021.16 1020.40 1019.36 1018.48 1017.39 1016.47 1016.02 1015.38 1014.78 1014.30 1013.45 1012.90 1011.75 1011.45 1011.52 1011.80 1012.12 1012.49 1012.70 1012.76 1013.23 1013.68 1013.95 1014.40 1015.12 1015.70 1016.13 1016.40 1016.85
1030.46 1031.10 1032.48 1033.23 1032.49 1031.16 1029.48 1028.24 1027.00 1026.40 1025.82 1025.32 1025.08 1024.56 1024.10 1023.66 1023.40 1023.17 1022.54 1021.99 1021.35 1020.77 1019.94 1019.17 1018.21 1016.97 1015.99 1015.64 1015.02 1014.37 1013.66 1012.96 1011.98 1010.87 1010.81 1010.81 1010.94 1011.25 1011.41 1012.03 1012.43 1012.49 1013.01 1013.53 1014.19 1014.63 1015.02 1015.55 1015.89
1031.28 1032.14 1032.93 1033.83 1033.55 1032.62 1030.19 1028.79 1027.30 1026.13 1025.60 1025.07 1024.88 1024.33 1024.15 1023.86 1023.44 1023.19 1022.70 1022.00 1021.53 1020.84 1020.14 1019.42 1018.39 1017.48 1016.57 1015.93 1015.52 1014.69 1013.82 1013.23 1012.20 1010.94 1010.21 1010.15 1010.05 1010.23 1010.81 1011.11 1011.41 1011.94 1012.20 1012.58 1013.36 1013.96 1014.29 1014.70 1014.97
1032.05 1033.10 1033.92 1035.27 1035.54 1034.04 1031.37 1029.57 1027.70 1026.59 1025.75 1025.38 1024.99 1024.54 1024.28 1023.95 1023.65 1023.33 1022.58 1021.87 1021.34 1021.11 1020.35 1019.69 1019.00 1018.24 1017.40 1016.41 1015.67 1015.03 1014.21 1013.32 1012.36 1011.27 1010.01 1009.53 1009.33 1009.54 1009.70 1010.32 1010.49 1010.94 1011.25 1011.52 1012.00 1012.69 1013.30 1014.01 1014.13
1033.24 1034.23 1035.46 1036.43 1036.61 1035.63 1033.46 1030.43 1028.00 1026.41 1025.81 1025.46 1025.02 1024.79 1024.47 1024.17 1023.74 1023.18 1022.39 1021.94 1021.45 1020.88 1020.41 1019.89 1019.17 1018.49 1017.78 1016.83 1015.81 1015.22 1014.62 1013.51 1012.78 1011.55 1010.62 1009.78 1009.19 1009.21 1009.42 1009.64 1009.76 1009.76 1010.07 1010.52 1010.85 1011.25 1011.79 1012.50 1012.76
1033.79 1034.82 1036.01 1037.45 1037.17 1035.93 1033.97 1030.03 1027.18 1026.24 1025.91 1025.23 1025.13 1024.68 1024.61 1024.33 1023.90 1023.25 1022.68 1022.06 1021.39 1020.94 1020.37 1019.77 1018.90 1018.15 1017.52 1017.13 1016.72 1015.65 1014.71 1014.26 1013.47 1012.49 1011.43 1010.29 1009.59 1009.43 1009.13 1009.07 1009.01 1008.93 1009.24 1009.58 1010.00 1010.01 1010.30 1010.80 1011.42
Thickness
5741 5750 5755 5750 5719 5702 5706 5724 5742 5745 5766 5791 5795 5790 5782 5778 5776 5758 5795 5796 5789 5779 5772 5766 5762 5762 5759 5754 5750 5745 5740 5736 5734 5731 5729 5727 5724 5721 5719 5717 5715 5712 5710 5709 5707 5707 5708 5707 5706
5738 5747 5745 5726 5695 5688 5705 5722 5731 5751 5769 5775 5790 5789 5784 5774 5786 5783 5785 5789 5790 5779 5771 5766 5762 5761 5758 5754 5750 5745 5740 5737 5735 5733 5730 5726 5724 5720 5717 5715 5713 5711 5709 5708 5707 5706 5706 5706 5706
5737 5739 5722 5701 5679 5686 5697 5725 5729 5760 5772 5774 5783 5788 5784 5775 5784 5785 5793 5787 5783 5776 5770 5765 5762 5760 5756 5754 5751 5746 5740 5736 5734 5733 5730 5726 5723 5720 5716 5714 5712 5710 5708 5707 5707 5706 5706 5706 5706
5728 5725 5711 5689 5690 5701 5712 5722 5735 5749 5772 5776 5780 5769 5787 5796 5791 5794 5794 5789 5781 5771 5768 5764 5760 5759 5755 5752 5750 5746 5741 5735 5733 5732 5729 5725 5721 5720 5716 5713 5711 5708 5707 5707 5706 5706 5705 5706 5706
5718 5707 5686 5678 5687 5700 5712 5725 5735 5740 5753 5761 5769 5762 5770 5782 5793 5789 5785 5784 5783 5771 5765 5761 5758 5757 5754 5750 5747 5745 5741 5736 5731 5730 5728 5725 5722 5718 5717 5714 5710 5708 5707 5707 5707 5706 5706 5706 5706
5695 5696 5672 5671 5684 5695 5710 5723 5728 5735 5746 5755 5759 5758 5759 5775 5776 5778 5776 5773 5771 5770 5763 5757 5754 5754 5752 5749 5746 5742 5740 5735 5731 5728 5726 5724 5721 5718 5717 5716 5712 5709 5707 5707 5708 5706 5707 5707 5705
5687 5679 5674 5677 5684 5690 5704 5721 5723 5722 5732 5745 5760 5745 5756 5765 5769 5771 5769 5766 5764 5759 5758 5755 5752 5750 5749 5747 5744 5741 5737 5735 5731 5727 5724 5722 5720 5719 5718 5717 5714 5711 5709 5708 5706 5705 5706 5705 5704
5685 5677 5675 5676 5675 5681 5697 5706 5719 5717 5723 5750 5756 5739 5745 5756 5762 5761 5758 5756 5755 5754 5752 5752 5751 5748 5745 5742 5741 5738 5735 5732 5731 5727 5723 5720 5719 5718 5718 5717 5716 5713 5712 5710 5707 5705 5704 5703 5703
5688 5660 5649 5665 5676 5680 5690 5690 5714 5723 5724 5732 5737 5741 5743 5753 5751 5749 5745 5743 5744 5746 5748 5748 5748 5745 5742 5740 5737 5736 5733 5729 5727 5725 5722 5719 5716 5716 5716 5717 5716 5715 5714 5711 5708 5705 5703 5703 5702
5666 5648 5655 5669 5676 5670 5679 5680 5690 5700 5705 5714 5723 5735 5740 5740 5739 5735 5737 5734 5733 5734 5737 5742 5743 5743 5740 5737 5735 5732 5729 5727 5724 5723 5721 5718 5715 5713 5715 5715 5714 5714 5713 5712 5709 5705 5702 5701 5700
5657 5649 5651 5658 5664 5672 5676 5680 5686 5687 5680 5689 5696 5707 5721 5728 5731 5728 5729 5728 5733 5734 5733 5734 5739 5739 5739 5736 5733 5731 5728 5725 5723 5720 5720 5717 5714 5712 5711 5713 5713 5712 5711 5711 5710 5707 5703 5700 5699
5649 5643 5644 5650 5658 5670 5671 5672 5671 5679 5673 5685 5696 5705 5705 5712 5716 5724 5726 5727 5725 5726 5731 5732 5732 5733 5735 5735 5732 5729 5727 5724 5722 5720 5717 5717 5714 5710 5710 5709 5710 5711 5710 5709 5709 5707 5704 5700 5698
5631 5632 5640 5646 5650 5658 5667 5659 5661 5658 5670 5671 5685 5693 5695 5696 5703 5711 5718 5725 5728 5724 5719 5725 5729 5731 5733 5733 5731 5729 5726 5724 5721 5720 5717 5715 5714 5712 5709 5708 5707 5708 5708 5708 5707 5706 5705 5702 5699
5626 5627 5630 5639 5643 5648 5646 5653 5657 5650 5659 5674 5667 5673 5678 5684 5687 5698 5706 5709 5715 5722 5719 5719 5724 5728 5727 5732 5732 5731 5727 5723 5721 5720 5719 5715 5713 5712 5710 5707 5706 5706 5706 5706 5706 5706 5705 5704 5700
5621 5617 5622 5628 5628 5630 5638 5633 5628 5637 5649 5655 5663 5660 5662 5668 5678 5676 5688 5701 5711 5714 5718 5717 5719 5719 5724 5726 5728 5731 5729 5725 5721 5719 5719 5717 5713 5712 5710 5708 5706 5705 5705 5704 5702 5702 5702 5704 5701
5605 5598 5592 5606 5610 5616 5616 5599 5616 5622 5626 5633 5643 5648 5648 5651 5660 5664 5666 5681 5695 5709 5716 5721 5721 5715 5715 5722 5724 5726 5728 5726 5724 5721 5718 5718 5715 5712 5710 5708 5706 5705 5703 5702 5701 5699 5698 5701 5701
5579 5572 5581 5588 5593 5588 5589 5582 5590 5602 5602 5607 5614 5621 5631 5637 5640 5646 5651 5662 5680 5695 5708 5711 5714 5718 5715 5712 5716 5719 5719 5722 5723 5721 5719 5717 5716 5714 5711 5708 5706 5705 5703 5701 5699 5698 5698 5697 5699
5560 5563 5566 5563 5570 5569 5565 5563 5564 5569 5570 5571 5585 5598 5608 5614 5618 5620 5631 5642 5658 5676 5695 5701 5705 5710 5711 5710 5706 5707 5711 5715 5717 5722 5723 5719 5717 5715 5714 5711 5708 5706 5703 5701 5698 5696 5696 5697 5696
5558 5554 5547 5550 5555 5551 5547 5542 5540 5537 5534 5542 5554 5568 5577 5587 5594 5605 5611 5622 5633 5650 5665 5679 5689 5693 5692 5700 5706 5708 5711 5717 5719 5722 5724 5724 5720 5717 5715 5714 5712 5709 5707 5704 5699 5696 5694 5693 5695
5547 5537 5526 5531 5534 5533 5529 5518 5522 5520 5513 5515 5524 5534 5545 5554 5569 5582 5594 5601 5611 5623 5636 5653 5665 5678 5682 5686 5691 5697 5708 5716 5720 5715 5714 5716 5717 5717 5716 5717 5714 5712 5708 5705 5701 5698 5693 5693 5695
5530 5517 5509 5504 5509 5510 5504 5491 5494 5496 5493 5499 5504 5506 5514 5524 5535 5549 5565 5577 5587 5599 5615 5629 5642 5655 5670 5688 5688 5690 5691 5694 5697 5703 5709 5717 5722 5721 5717 5717 5714 5711 5711 5709 5705 5701 5698 5694 5692
5510 5512 5505 5496 5481 5465 5491 5443 5463 5471 5470 5471 5483 5487 5496 5506 5514 5521 5535 5549 5561 5575 5592 5608 5623 5637 5656 5671 5684 5687 5690 5691 5700 5708 5717 5721 5719 5717 5716 5714 5711 5711 5711 5710 5709 5704 5702 5696 5692
5504 5501 5494 5486 5472 5462 5464 5437 5450 5454 5455 5460 5462 5478 5483 5489 5499 5506 5514 5524 5537 5553 5573 5590 5604 5623 5637 5652 5664 5677 5683 5690 5695 5699 5695 5707 5712 5711 5712 5712 5711 5709 5710 5711 5709 5706 5702 5703 5700
5497 5492 5481 5468 5451 5426 5458 5448 5433 5447 5447 5442 5455 5469 5473 5477 5483 5492 5500 5509 5519 5535 5555 5573 5590 5600 5616 5626 5642 5653 5670 5678 5683 5691 5695 5698 5700 5706 5709 5708 5706 5709 5709 5710 5712 5709 5705 5705 5703
5472 5454 5398 5416 5393 5406 5456 5435 5439 5448 5452 5442 5448 5463 5464 5464 5468 5476 5488 5498 5511 5521 5536 5555 5572 5586 5596 5608 5619 5633 5648 5660 5677 5685 5689 5692 5693 5695 5699 5707 5707 5708 5711 5713 5710 5708 5708 5707 5703
5462 5447 5379 5346 5394 5419 5448 5434 5423 5450 5455 5453 5448 5455 5456 5458 5459 5462 5471 5481 5493 5506 5519 5532 5548 5567 5581 5591 5602 5615 5632 5645 5660 5676 5683 5690 5695 5698 5702 5699 5700 5706 5706 5707 5706 5707 5708 5705 5704
5450 5413 5432 5388 5414 5404 5430 5427 5430 5446 5450 5452 5448 5453 5448 5450 5453 5456 5463 5471 5480 5489 5502 5517 5531 5547 5561 5573 5584 5596 5613 5627 5643 5661 5674 5681 5691 5696 5695 5697 5698 5697 5700 5701 5698 5698 5701 5701 5703
5441 5428 5388 5353 5330 5349 5397 5410 5406 5432 5431 5436 5439 5444 5445 5449 5448 5450 5458 5465 5471 5476 5488 5500 5510 5524 5539 5554 5567 5579 5592 5609 5626 5642 5660 5670 5679 5685 5690 5690 5694 5695 5695 5696 5694 5694 5695 5692 5697
5414 5399 5380 5364 5362 5351 5355 5389 5409 5425 5424 5422 5430 5436 5437 5440 5444 5448 5454 5457 5463 5469 5475 5483 5494 5506 5521 5534 5548 5561 5573 5588 5603 5622 5638 5651 5662 5669 5674 5680 5685 5689 5690 5691 5691 5693 5693 5691 5698
5422 5400 5387 5323 5327 5338 5350 5382 5422 5415 5408 5418 5421 5430 5428 5431 5435 5442 5445 5449 5456 5460 5467 5472 5483 5493 5505 5516 5525 5540 5555 5565 5577 5596 5614 5631 5641 5648 5657 5667 5673 5681 5683 5685 5683 5690 5693 5693 5694